Location: Bothwell
(42.3833°S, 147.0000°E)
Time: 21:18:17
(UTC+11:00)

CUTE-I - Pass Details

Date: 04 October 2022
Orbit: 810 x 823 km, 98.7° (Epoch: 29 November)

Event Time Altitude Azimuth Distance (km) Brightness Sun altitude
Rises 21:32:12 0° 187° (S) 3,396 ? -23.6°
Reaches altitude 10° 21:36:57 10° 225° (SW) 2,453 ? -24.3°
Maximum altitude 21:37:53 10° 235° (SW) 2,419 ? -24.5°
Drops below altitude 10° 21:38:50 10° 245° (WSW) 2,450 ? -24.6°
Sets 21:43:33 0° 283° (WNW) 3,371 ? -25.4°
